Flag for El Salvador Weather past 2 weeks in San Salvador, El Salvador

Now
72 °F

Snow. Passing clouds.


Feels Like: 67 °F
Forecast: 71 / 83 °F
Wind: 5 mph from North

Location: San Salvador / Ilopango

Current Time: Sep 1, 2014 at 2:24:49 AM

Latest Report: Aug 31, 2014 at 11:50 PM


Visibility: N/A

Pressure: 30.01 "Hg

Humidity: 94%

Dew point: 70 °F

Location of San SalvadorLocation

Historic Weather in San Salvador — Graph

°F

San Salvador temperature yesterday

Maximum temperature yesterday: 82 °F (at 10:50 AM)
Minimum temperature yesterday: 70 °F (at 5:50 AM)
Average temperature yesterday: 76 °F

Past Weeks' High & Low Weather Summary

 TemperatureHumidityPressure
High91 °F (Aug 18, 2:50 PM)100% (Aug 16, 11:50 PM)30.07 "Hg (Aug 16, 11:50 PM)
Low66 °F (Aug 24, 5:50 AM)59% (Aug 17, 3:50 PM)29.86 "Hg (Aug 19, 5:50 PM)
Average77 °F83%29.96 "Hg
* Reported Aug 16 11:50 PM — Aug 31 11:50 PM, San Salvador, Weather by CustomWeather, © 2014

Note: Actual official high and low records may vary slightly from our data, if they occured in-between our weather recording intervals... More about our weather records

Advertising

San Salvador weather history for previous 24 hours

 ConditionsComfort  
Time TempWeatherWind HumidityBarometerVisibility
11:50 PM
Aug 31
72 °FSnow. Passing clouds.5 mph94%30.01 "HgN/A
10:50 PM73 °FThunderstorms. Passing clouds.5 mph94%30.01 "Hg3 mi
9:50 PM72 °FPassing clouds.No wind100%30.01 "HgN/A
8:50 PM73 °FPassing clouds.2 mph94%29.98 "HgN/A
7:50 PM73 °FClear.No wind94%29.98 "Hg10 mi
6:50 PM73 °FClear.5 mph94%29.95 "Hg10 mi
5:50 PM75 °FSunny.2 mph89%29.95 "Hg10 mi
4:50 PM75 °FPassing clouds.2 mph89%29.92 "HgN/A
3:50 PM75 °FPassing clouds.2 mph83%29.95 "HgN/A
2:50 PM75 °FScattered clouds.3 mph89%29.95 "HgN/A
1:50 PM82 °FScattered clouds.7 mph74%29.98 "HgN/A
12:50 PM81 °FScattered clouds.2 mph74%29.98 "HgN/A
11:50 AM81 °FScattered clouds.6 mph74%30.01 "HgN/A
10:50 AM82 °FScattered clouds.No wind70%30.01 "HgN/A
9:50 AM81 °FScattered clouds.7 mph74%29.98 "HgN/A
8:50 AM77 °FPassing clouds.2 mph83%30.01 "HgN/A
7:50 AM73 °FPassing clouds.2 mph89%29.98 "HgN/A
6:50 AM72 °FSunny.No wind94%29.98 "Hg10 mi
5:50 AM70 °FPassing clouds.No wind94%29.98 "HgN/A
Weather by CustomWeather, © 2014

See weather overviewHow to use our weather pages